Time,TemperatureF,DewpointF,PressureIn,WindDirection,WindDirectionDegrees,WindSpeedMPH,WindSpeedGustMPH,Humidity,HourlyPrecipIn,Conditions,Clouds,dailyrainin,SoftwareType,DateUTC
2013-06-09 00:01:00,65.1,63.3,30.08,West,266,0.0,1.0,94,0.00,,,0.00,meteohub,2013-06-09 04:01:00,
2013-06-09 00:02:00,65.1,63.3,30.08,West,267,0.0,1.0,94,0.00,,,0.00,meteohub,2013-06-09 04:02:00,
2013-06-09 00:07:00,65.1,63.3,30.08,West,267,0.0,1.0,94,0.00,,,0.00,meteohub,2013-06-09 04:07:00,
2013-06-09 00:12:00,65.1,63.3,30.08,SSE,149,0.0,1.0,94,0.00,,,0.00,meteohub,2013-06-09 04:12:00,
2013-06-09 00:17:00,65.1,63.3,30.08,SSE,150,0.0,1.0,94,0.00,,,0.00,meteohub,2013-06-09 04:17:00,
2013-06-09 00:22:00,65.1,63.3,30.08,WSW,243,0.0,1.0,94,0.00,,,0.00,meteohub,2013-06-09 04:22:00,
2013-06-09 00:27:00,65.3,63.5,30.08,SSW,195,0.0,1.0,94,0.00,,,0.00,meteohub,2013-06-09 04:27:00,
2013-06-09 00:32:00,65.5,63.7,30.08,SSW,195,0.0,1.0,94,0.00,,,0.00,meteohub,2013-06-09 04:32:00,
2013-06-09 00:37:00,65.3,63.5,30.09,SSW,203,0.0,1.0,94,0.00,,,0.00,meteohub,2013-06-09 04:37:00,
2013-06-09 00:42:00,65.1,63.3,30.09,SW,226,0.0,2.0,94,0.00,,,0.00,meteohub,2013-06-09 04:42:00,
2013-06-09 00:47:00,65.1,63.3,30.08,WSW,253,0.0,2.0,94,0.00,,,0.00,meteohub,2013-06-09 04:47:00,
2013-06-09 00:52:00,65.1,63.3,30.09,SW,215,1.0,2.0,94,0.00,,,0.00,meteohub,2013-06-09 04:52:00,
2013-06-09 00:57:00,64.9,63.1,30.09,WNW,287,1.0,2.0,94,0.00,,,0.00,meteohub,2013-06-09 04:57:00,
2013-06-09 01:02:00,64.9,63.5,30.09,WNW,293,0.0,2.0,95,0.00,,,0.00,meteohub,2013-06-09 05:02:00,
2013-06-09 01:07:00,64.9,63.5,30.09,WNW,302,1.0,2.0,95,0.00,,,0.00,meteohub,2013-06-09 05:07:00,
2013-06-09 01:12:00,64.9,63.5,30.09,NW,304,0.0,1.0,95,0.00,,,0.00,meteohub,2013-06-09 05:12:00,
2013-06-09 01:17:00,65.1,63.7,30.09,NNW,333,0.0,1.0,95,0.00,,,0.00,meteohub,2013-06-09 05:17:00,
2013-06-09 01:22:00,65.1,63.7,30.09,NW,324,0.0,1.0,95,0.00,,,0.00,meteohub,2013-06-09 05:22:00,
2013-06-09 01:27:00,64.9,63.5,30.09,ESE,103,0.0,1.0,95,0.00,,,0.00,meteohub,2013-06-09 05:27:00,
2013-06-09 01:32:00,64.9,63.5,30.09,ESE,103,0.0,2.0,95,0.00,,,0.00,meteohub,2013-06-09 05:32:00,
2013-06-09 01:37:00,64.8,63.3,30.08,ESE,103,0.0,2.0,95,0.00,,,0.00,meteohub,2013-06-09 05:37:00,
2013-06-09 01:42:00,64.8,63.3,30.08,ESE,110,0.0,1.0,95,0.00,,,0.00,meteohub,2013-06-09 05:42:00,
2013-06-09 01:47:00,64.6,63.1,30.08,SW,220,0.0,1.0,95,0.00,,,0.00,meteohub,2013-06-09 05:47:00,
2013-06-09 01:52:00,64.4,63.0,30.08,SW,224,0.0,1.0,95,0.00,,,0.00,meteohub,2013-06-09 05:52:00,
2013-06-09 01:57:00,64.2,62.8,30.08,SW,224,0.0,1.0,95,0.00,,,0.00,meteohub,2013-06-09 05:57:00,
2013-06-09 02:02:00,64.0,62.6,30.08,SW,224,0.0,1.0,95,0.00,,,0.00,meteohub,2013-06-09 06:02:00,
2013-06-09 02:07:00,63.9,62.4,30.08,SW,224,0.0,0.0,95,0.00,,,0.00,meteohub,2013-06-09 06:07:00,
2013-06-09 02:12:00,63.9,62.4,30.08,SW,224,0.0,0.0,95,0.00,,,0.00,meteohub,2013-06-09 06:12:00,
2013-06-09 02:17:00,63.7,62.2,30.08,SW,224,0.0,0.0,95,0.00,,,0.00,meteohub,2013-06-09 06:17:00,
2013-06-09 02:22:00,63.5,62.4,30.08,SW,224,0.0,0.0,96,0.00,,,0.00,meteohub,2013-06-09 06:22:00,
2013-06-09 02:27:00,63.3,62.2,30.08,SW,224,0.0,0.0,96,0.00,,,0.00,meteohub,2013-06-09 06:27:00,
2013-06-09 02:32:00,63.3,62.2,30.08,South,176,0.0,0.0,96,0.00,,,0.00,meteohub,2013-06-09 06:32:00,
2013-06-09 02:37:00,63.5,62.4,30.07,ENE,63,0.0,1.0,96,0.00,,,0.00,meteohub,2013-06-09 06:37:00,
2013-06-09 02:42:00,63.5,62.4,30.07,ESE,102,0.0,1.0,96,0.00,,,0.00,meteohub,2013-06-09 06:42:00,
2013-06-09 02:48:00,63.3,62.2,30.07,East,101,0.0,1.0,96,0.00,,,0.00,meteohub,2013-06-09 06:48:00,
2013-06-09 02:53:00,63.3,62.2,30.07,SSE,152,0.0,2.0,96,0.00,,,0.00,meteohub,2013-06-09 06:53:00,
2013-06-09 02:58:00,63.3,62.2,30.07,SSE,150,0.0,2.0,96,0.00,,,0.00,meteohub,2013-06-09 06:58:00,
2013-06-09 03:03:00,63.3,62.4,30.07,WSW,243,0.0,2.0,97,0.00,,,0.00,meteohub,2013-06-09 07:03:00,
2013-06-09 03:08:00,63.5,62.6,30.07,WSW,243,0.0,1.0,97,0.00,,,0.00,meteohub,2013-06-09 07:08:00,
2013-06-09 03:13:00,63.5,62.6,30.07,WSW,258,0.0,0.0,97,0.00,,,0.00,meteohub,2013-06-09 07:13:00,
2013-06-09 03:18:00,63.5,62.4,30.07,WSW,258,0.0,0.0,96,0.00,,,0.00,meteohub,2013-06-09 07:18:00,
2013-06-09 03:23:00,63.5,62.6,30.07,WSW,258,0.0,0.0,97,0.00,,,0.00,meteohub,2013-06-09 07:23:00,
2013-06-09 03:28:00,63.3,62.4,30.07,WSW,257,0.0,0.0,97,0.00,,,0.00,meteohub,2013-06-09 07:28:00,
2013-06-09 03:33:00,63.3,62.2,30.08,WSW,257,0.0,0.0,96,0.00,,,0.00,meteohub,2013-06-09 07:33:00,
2013-06-09 03:38:00,63.1,62.1,30.08,WSW,257,0.0,0.0,96,0.00,,,0.00,meteohub,2013-06-09 07:38:00,
2013-06-09 03:43:00,63.1,62.1,30.08,WNW,302,0.0,0.0,96,0.00,,,0.00,meteohub,2013-06-09 07:43:00,
2013-06-09 03:48:00,63.1,62.2,30.08,WNW,302,0.0,0.0,97,0.00,,,0.00,meteohub,2013-06-09 07:48:00,
2013-06-09 03:53:00,63.3,62.4,30.08,WNW,302,0.0,0.0,97,0.00,,,0.00,meteohub,2013-06-09 07:53:00,
2013-06-09 03:58:00,63.3,62.4,30.08,WNW,302,0.0,0.0,97,0.00,,,0.00,meteohub,2013-06-09 07:58:00,
2013-06-09 04:03:00,63.5,62.6,30.08,WNW,302,0.0,0.0,97,0.00,,,0.00,meteohub,2013-06-09 08:03:00,
2013-06-09 04:08:00,63.7,62.8,30.08,WNW,302,0.0,0.0,97,0.00,,,0.00,meteohub,2013-06-09 08:08:00,
2013-06-09 04:13:00,63.7,62.8,30.08,WNW,302,0.0,0.0,97,0.00,,,0.00,meteohub,2013-06-09 08:13:00,
2013-06-09 04:18:00,63.7,62.8,30.08,WNW,302,0.0,0.0,97,0.00,,,0.00,meteohub,2013-06-09 08:18:00,
2013-06-09 04:23:00,63.7,62.8,30.08,WNW,302,0.0,0.0,97,0.00,,,0.00,meteohub,2013-06-09 08:23:00,
2013-06-09 04:28:00,63.7,62.8,30.08,WNW,302,0.0,0.0,97,0.00,,,0.00,meteohub,2013-06-09 08:28:00,
2013-06-09 04:33:00,63.5,62.6,30.08,WNW,302,0.0,0.0,97,0.00,,,0.00,meteohub,2013-06-09 08:33:00,
2013-06-09 04:38:00,63.3,62.4,30.08,WNW,302,0.0,0.0,97,0.00,,,0.00,meteohub,2013-06-09 08:38:00,
2013-06-09 04:43:00,63.3,62.4,30.08,WNW,302,0.0,0.0,97,0.00,,,0.00,meteohub,2013-06-09 08:43:00,
2013-06-09 04:48:00,63.3,62.4,30.08,WNW,302,0.0,0.0,97,0.00,,,0.00,meteohub,2013-06-09 08:48:00,
2013-06-09 04:53:00,63.3,62.4,30.08,WNW,302,0.0,0.0,97,0.00,,,0.00,meteohub,2013-06-09 08:53:00,
2013-06-09 04:58:00,63.1,62.2,30.08,WNW,302,0.0,0.0,97,0.00,,,0.00,meteohub,2013-06-09 08:58:00,
2013-06-09 05:03:00,63.0,62.1,30.09,WNW,302,0.0,0.0,97,0.00,,,0.00,meteohub,2013-06-09 09:03:00,
2013-06-09 05:08:00,63.0,62.1,30.09,WNW,302,0.0,0.0,97,0.00,,,0.00,meteohub,2013-06-09 09:08:00,
2013-06-09 05:13:00,62.8,61.9,30.09,WNW,302,0.0,0.0,97,0.00,,,0.00,meteohub,2013-06-09 09:13:00,
2013-06-09 05:18:00,62.8,61.9,30.09,WNW,302,0.0,0.0,97,0.00,,,0.00,meteohub,2013-06-09 09:18:00,
2013-06-09 05:23:00,62.4,61.5,30.09,WNW,302,0.0,0.0,97,0.00,,,0.00,meteohub,2013-06-09 09:23:00,
2013-06-09 05:28:00,62.4,61.5,30.09,WNW,302,0.0,0.0,97,0.00,,,0.00,meteohub,2013-06-09 09:28:00,
2013-06-09 05:33:00,62.2,61.3,30.09,WNW,302,0.0,0.0,97,0.00,,,0.00,meteohub,2013-06-09 09:33:00,
2013-06-09 05:38:00,62.2,61.3,30.09,WNW,302,0.0,0.0,97,0.00,,,0.00,meteohub,2013-06-09 09:38:00,
2013-06-09 05:43:00,62.1,61.2,30.10,WNW,302,0.0,0.0,97,0.00,,,0.00,meteohub,2013-06-09 09:43:00,
2013-06-09 05:48:00,62.1,61.2,30.10,WNW,302,0.0,0.0,97,0.00,,,0.00,meteohub,2013-06-09 09:48:00,
2013-06-09 05:53:00,61.9,61.0,30.10,WNW,302,0.0,0.0,97,0.00,,,0.00,meteohub,2013-06-09 09:53:00,
2013-06-09 05:58:00,61.9,61.0,30.09,WNW,302,0.0,0.0,97,0.00,,,0.00,meteohub,2013-06-09 09:58:00,
2013-06-09 06:03:00,61.7,60.8,30.10,WNW,302,0.0,0.0,97,0.00,,,0.00,meteohub,2013-06-09 10:03:00,
2013-06-09 06:08:00,61.9,61.0,30.10,WNW,302,0.0,0.0,97,0.00,,,0.00,meteohub,2013-06-09 10:08:00,
2013-06-09 06:13:00,61.9,61.0,30.11,WNW,302,0.0,0.0,97,0.00,,,0.00,meteohub,2013-06-09 10:13:00,
2013-06-09 06:18:00,61.9,61.3,30.11,WNW,302,0.0,0.0,98,0.00,,,0.00,meteohub,2013-06-09 10:18:00,
2013-06-09 06:23:00,61.7,60.8,30.11,WNW,302,0.0,0.0,97,0.00,,,0.00,meteohub,2013-06-09 10:23:00,
2013-06-09 06:28:00,61.5,60.6,30.11,WNW,302,0.0,0.0,97,0.00,,,0.00,meteohub,2013-06-09 10:28:00,
2013-06-09 06:33:00,61.5,60.6,30.11,WNW,302,0.0,0.0,97,0.00,,,0.00,meteohub,2013-06-09 10:33:00,
2013-06-09 06:39:00,61.5,61.0,30.11,WNW,302,0.0,0.0,98,0.00,,,0.00,meteohub,2013-06-09 10:39:00,
2013-06-09 06:44:00,61.5,61.0,30.11,WNW,302,0.0,0.0,98,0.00,,,0.00,meteohub,2013-06-09 10:44:00,
2013-06-09 06:49:00,61.7,61.2,30.11,WNW,302,0.0,0.0,98,0.00,,,0.00,meteohub,2013-06-09 10:49:00,
2013-06-09 06:54:00,61.9,61.3,30.11,WNW,302,0.0,0.0,98,0.00,,,0.00,meteohub,2013-06-09 10:54:00,
2013-06-09 06:59:00,62.2,61.7,30.11,WNW,302,0.0,0.0,98,0.00,,,0.00,meteohub,2013-06-09 10:59:00,
2013-06-09 07:04:00,62.8,62.2,30.11,WNW,302,0.0,0.0,98,0.00,,,0.00,meteohub,2013-06-09 11:04:00,
2013-06-09 07:09:00,63.1,62.6,30.11,WNW,302,0.0,0.0,98,0.00,,,0.00,meteohub,2013-06-09 11:09:00,
2013-06-09 07:14:00,63.0,62.4,30.11,WNW,302,0.0,0.0,98,0.00,,,0.00,meteohub,2013-06-09 11:14:00,
2013-06-09 07:19:00,62.8,61.9,30.12,WNW,302,0.0,0.0,97,0.00,,,0.00,meteohub,2013-06-09 11:19:00,
2013-06-09 07:24:00,62.8,61.9,30.11,WNW,302,0.0,0.0,97,0.00,,,0.00,meteohub,2013-06-09 11:24:00,
2013-06-09 07:29:00,62.8,61.9,30.11,WNW,302,0.0,0.0,97,0.00,,,0.00,meteohub,2013-06-09 11:29:00,
2013-06-09 07:34:00,63.0,62.1,30.12,WNW,302,0.0,0.0,97,0.00,,,0.00,meteohub,2013-06-09 11:34:00,
2013-06-09 07:39:00,63.0,62.1,30.12,WNW,302,0.0,0.0,97,0.00,,,0.00,meteohub,2013-06-09 11:39:00,
2013-06-09 07:44:00,63.1,62.6,30.12,WNW,302,0.0,0.0,98,0.00,,,0.00,meteohub,2013-06-09 11:44:00,
2013-06-09 07:49:00,63.1,62.2,30.12,NW,304,0.0,0.0,97,0.00,,,0.00,meteohub,2013-06-09 11:49:00,
2013-06-09 07:54:00,63.1,62.2,30.12,NW,304,0.0,0.0,97,0.00,,,0.00,meteohub,2013-06-09 11:54:00,
2013-06-09 07:59:00,63.1,62.2,30.12,NW,304,0.0,0.0,97,0.00,,,0.00,meteohub,2013-06-09 11:59:00,
2013-06-09 08:04:00,63.3,62.4,30.12,WNW,302,0.0,0.0,97,0.00,,,0.00,meteohub,2013-06-09 12:04:00,
2013-06-09 08:09:00,63.9,63.3,30.12,WNW,302,0.0,0.0,98,0.00,,,0.00,meteohub,2013-06-09 12:09:00,
2013-06-09 08:14:00,64.9,64.4,30.12,NW,307,0.0,0.0,98,0.00,,,0.00,meteohub,2013-06-09 12:14:00,
2013-06-09 08:19:00,65.7,65.1,30.12,NW,315,0.0,0.0,98,0.00,,,0.00,meteohub,2013-06-09 12:19:00,
2013-06-09 08:24:00,66.4,65.5,30.12,NW,315,0.0,0.0,97,0.00,,,0.00,meteohub,2013-06-09 12:24:00,
2013-06-09 08:29:00,66.9,65.7,30.12,NW,315,0.0,0.0,96,0.00,,,0.00,meteohub,2013-06-09 12:29:00,
2013-06-09 08:34:00,67.8,66.4,30.12,NW,315,0.0,0.0,95,0.00,,,0.00,meteohub,2013-06-09 12:34:00,
2013-06-09 08:39:00,69.3,66.9,30.12,NW,323,0.0,0.0,92,0.00,,,0.00,meteohub,2013-06-09 12:39:00,
2013-06-09 08:44:00,70.2,66.4,30.12,NNE,16,0.0,0.0,88,0.00,,,0.00,meteohub,2013-06-09 12:44:00,
2013-06-09 08:49:00,70.2,65.8,30.12,West,276,0.0,1.0,86,0.00,,,0.00,meteohub,2013-06-09 12:49:00,
2013-06-09 08:54:00,70.5,66.2,30.12,WNW,287,0.0,1.0,86,0.00,,,0.00,meteohub,2013-06-09 12:54:00,
2013-06-09 08:59:00,71.1,66.0,30.12,NW,317,0.0,1.0,84,0.00,,,0.00,meteohub,2013-06-09 12:59:00,
2013-06-09 09:04:00,71.2,66.2,30.12,WSW,253,0.0,1.0,84,0.00,,,0.00,meteohub,2013-06-09 13:04:00,
2013-06-09 09:09:00,70.9,66.2,30.12,SSE,148,0.0,4.0,85,0.00,,,0.00,meteohub,2013-06-09 13:09:00,
2013-06-09 09:14:00,70.5,66.4,30.12,West,277,0.0,4.0,87,0.00,,,0.00,meteohub,2013-06-09 13:14:00,
2013-06-09 09:19:00,70.2,66.4,30.12,West,274,0.0,4.0,88,0.00,,,0.00,meteohub,2013-06-09 13:19:00,
2013-06-09 09:24:00,70.3,66.9,30.12,WSW,250,0.0,2.0,89,0.00,,,0.00,meteohub,2013-06-09 13:24:00,
2013-06-09 09:29:00,70.9,67.1,30.12,WNW,283,0.0,1.0,88,0.00,,,0.00,meteohub,2013-06-09 13:29:00,
2013-06-09 09:35:00,71.2,67.1,30.12,WNW,287,0.0,1.0,87,0.00,,,0.00,meteohub,2013-06-09 13:35:00,
2013-06-09 09:40:00,72.0,67.3,30.11,SSW,195,2.0,2.0,85,0.00,,,0.00,meteohub,2013-06-09 13:40:00,
2013-06-09 09:45:00,72.1,66.7,30.11,SE,134,0.0,3.0,83,0.00,,,0.00,meteohub,2013-06-09 13:45:00,
2013-06-09 09:50:00,72.1,67.1,30.11,SSE,160,0.0,5.0,84,0.00,,,0.00,meteohub,2013-06-09 13:50:00,
2013-06-09 09:55:00,72.1,66.7,30.11,WNW,287,0.0,5.0,83,0.00,,,0.00,meteohub,2013-06-09 13:55:00,
2013-06-09 10:00:00,72.0,66.9,30.11,South,169,3.0,5.0,84,0.00,,,0.00,meteohub,2013-06-09 14:00:00,
2013-06-09 10:05:00,72.0,66.6,30.11,South,187,1.0,4.0,83,0.00,,,0.00,meteohub,2013-06-09 14:05:00,
2013-06-09 10:10:00,72.1,66.7,30.11,SSW,212,0.0,4.0,83,0.00,,,0.00,meteohub,2013-06-09 14:10:00,
2013-06-09 10:15:00,72.5,66.4,30.11,SSE,148,2.0,5.0,81,0.00,,,0.00,meteohub,2013-06-09 14:15:00,
2013-06-09 10:20:00,72.7,66.6,30.11,SW,228,1.0,5.0,81,0.00,,,0.00,meteohub,2013-06-09 14:20:00,
2013-06-09 10:25:00,72.1,66.7,30.11,SW,233,0.0,5.0,83,0.00,,,0.00,meteohub,2013-06-09 14:25:00,
2013-06-09 10:30:00,72.1,67.1,30.11,ESE,113,0.0,5.0,84,0.00,,,0.00,meteohub,2013-06-09 14:30:00,
2013-06-09 10:35:00,72.7,66.9,30.10,ENE,60,0.0,5.0,82,0.00,,,0.00,meteohub,2013-06-09 14:35:00,
2013-06-09 10:40:00,72.9,66.4,30.10,WNW,296,0.0,5.0,80,0.00,,,0.00,meteohub,2013-06-09 14:40:00,
2013-06-09 10:45:00,72.7,66.6,30.10,West,263,0.0,4.0,81,0.00,,,0.00,meteohub,2013-06-09 14:45:00,
2013-06-09 10:50:00,72.3,66.6,30.10,NW,317,0.0,5.0,82,0.00,,,0.00,meteohub,2013-06-09 14:50:00,
2013-06-09 10:55:00,72.1,66.4,30.10,SE,135,0.0,5.0,82,0.00,,,0.00,meteohub,2013-06-09 14:55:00,
2013-06-09 11:00:00,72.1,66.7,30.10,WNW,286,0.0,2.0,83,0.00,,,0.00,meteohub,2013-06-09 15:00:00,
2013-06-09 11:05:00,72.7,66.6,30.10,SW,222,1.0,2.0,81,0.00,,,0.00,meteohub,2013-06-09 15:05:00,
2013-06-09 11:10:00,73.2,66.7,30.10,SSE,167,0.0,6.0,80,0.00,,,0.00,meteohub,2013-06-09 15:10:00,
2013-06-09 11:15:00,73.8,67.6,30.10,NW,315,0.0,6.0,81,0.00,,,0.00,meteohub,2013-06-09 15:15:00,
2013-06-09 11:20:00,74.5,67.1,30.10,SSW,203,4.0,6.0,78,0.00,,,0.00,meteohub,2013-06-09 15:20:00,
2013-06-09 11:25:00,74.5,67.5,30.10,WSW,257,0.0,6.0,79,0.00,,,0.00,meteohub,2013-06-09 15:25:00,
2013-06-09 11:30:00,74.8,67.8,30.10,SW,229,3.0,6.0,79,0.00,,,0.00,meteohub,2013-06-09 15:30:00,
2013-06-09 11:35:00,74.8,67.5,30.10,South,172,0.0,6.0,78,0.00,,,0.00,meteohub,2013-06-09 15:35:00,
2013-06-09 11:40:00,75.4,66.9,30.10,SSE,148,5.0,6.0,75,0.00,,,0.00,meteohub,2013-06-09 15:40:00,
2013-06-09 11:45:00,75.6,67.5,30.09,SSW,193,1.0,6.0,76,0.00,,,0.00,meteohub,2013-06-09 15:45:00,
2013-06-09 11:50:00,75.7,67.6,30.09,South,188,3.0,6.0,76,0.00,,,0.00,meteohub,2013-06-09 15:50:00,
2013-06-09 11:55:00,75.7,67.3,30.09,WNW,296,0.0,7.0,75,0.00,,,0.00,meteohub,2013-06-09 15:55:00,
2013-06-09 12:00:00,75.7,67.3,30.09,SW,216,4.0,7.0,75,0.00,,,0.00,meteohub,2013-06-09 16:00:00,
2013-06-09 12:05:00,75.0,66.9,30.09,WSW,248,4.0,8.0,76,0.00,,,0.00,meteohub,2013-06-09 16:05:00,
2013-06-09 12:10:00,75.0,66.2,30.09,SE,131,3.0,8.0,74,0.00,,,0.00,meteohub,2013-06-09 16:10:00,
2013-06-09 12:15:00,75.0,66.6,30.09,SW,236,0.0,8.0,75,0.00,,,0.00,meteohub,2013-06-09 16:15:00,
2013-06-09 12:20:00,75.0,66.2,30.09,SSW,193,3.0,7.0,74,0.00,,,0.00,meteohub,2013-06-09 16:20:00,
2013-06-09 12:25:00,74.5,66.4,30.09,SW,226,2.0,7.0,76,0.00,,,0.00,meteohub,2013-06-09 16:25:00,
2013-06-09 12:30:00,74.8,67.1,30.09,SW,225,1.0,6.0,77,0.00,,,0.00,meteohub,2013-06-09 16:30:00,
2013-06-09 12:35:00,75.6,67.1,30.09,NW,322,0.0,7.0,75,0.00,,,0.00,meteohub,2013-06-09 16:35:00,
2013-06-09 12:40:00,76.1,67.6,30.08,SSW,210,1.0,7.0,75,0.00,,,0.00,meteohub,2013-06-09 16:40:00,
2013-06-09 12:45:00,75.6,66.7,30.08,SE,127,0.0,8.0,74,0.00,,,0.00,meteohub,2013-06-09 16:45:00,
2013-06-09 12:50:00,75.6,67.1,30.08,SE,139,1.0,8.0,75,0.00,,,0.00,meteohub,2013-06-09 16:50:00,
2013-06-09 12:55:00,75.0,66.6,30.07,WSW,248,2.0,8.0,75,0.00,,,0.00,meteohub,2013-06-09 16:55:00,
2013-06-09 13:00:00,75.0,67.3,30.06,WNW,282,1.0,8.0,77,0.00,,,0.00,meteohub,2013-06-09 17:00:00,
2013-06-09 13:05:00,75.6,67.5,30.06,West,269,0.0,7.0,76,0.00,,,0.00,meteohub,2013-06-09 17:05:00,
2013-06-09 13:10:00,75.9,67.5,30.06,NNW,330,0.0,8.0,75,0.00,,,0.00,meteohub,2013-06-09 17:10:00,
2013-06-09 13:15:00,76.6,67.3,30.06,SSW,212,0.0,9.0,73,0.00,,,0.00,meteohub,2013-06-09 17:15:00,
2013-06-09 13:20:00,76.5,67.1,30.05,SW,231,0.0,9.0,73,0.00,,,0.00,meteohub,2013-06-09 17:20:00,
2013-06-09 13:25:00,76.8,66.7,30.05,SW,217,6.0,9.0,71,0.00,,,0.00,meteohub,2013-06-09 17:25:00,
2013-06-09 13:30:00,76.8,66.7,30.05,South,176,4.0,10.0,71,0.00,,,0.00,meteohub,2013-06-09 17:30:00,
2013-06-09 13:35:00,76.6,66.9,30.04,North,351,2.0,10.0,72,0.00,,,0.00,meteohub,2013-06-09 17:35:00,
2013-06-09 13:40:00,76.6,67.6,30.04,WSW,240,4.0,10.0,74,0.00,,,0.00,meteohub,2013-06-09 17:40:00,
2013-06-09 13:45:00,76.3,66.6,30.04,ENE,67,3.0,9.0,72,0.00,,,0.00,meteohub,2013-06-09 17:45:00,
2013-06-09 13:50:00,75.7,66.9,30.04,West,273,0.0,9.0,74,0.00,,,0.00,meteohub,2013-06-09 17:50:00,
2013-06-09 13:55:00,76.3,66.9,30.04,WSW,239,2.0,9.0,73,0.00,,,0.00,meteohub,2013-06-09 17:55:00,
2013-06-09 14:01:00,76.3,66.6,30.04,WSW,249,2.0,9.0,72,0.00,,,0.00,meteohub,2013-06-09 18:01:00,
2013-06-09 14:06:00,76.3,66.2,30.04,WNW,284,3.0,8.0,71,0.00,,,0.00,meteohub,2013-06-09 18:06:00,
2013-06-09 14:11:00,76.3,66.6,30.03,NW,317,0.0,12.0,72,0.00,,,0.00,meteohub,2013-06-09 18:11:00,
2013-06-09 14:16:00,76.6,67.3,30.03,WNW,293,1.0,12.0,73,0.00,,,0.00,meteohub,2013-06-09 18:16:00,
2013-06-09 14:21:00,77.0,68.0,30.03,NW,309,0.0,12.0,74,0.00,,,0.00,meteohub,2013-06-09 18:21:00,
2013-06-09 14:26:00,77.0,67.3,30.03,NNW,343,1.0,5.0,72,0.00,,,0.00,meteohub,2013-06-09 18:26:00,
2013-06-09 14:31:00,77.2,67.8,30.03,SW,229,2.0,5.0,73,0.00,,,0.00,meteohub,2013-06-09 18:31:00,
2013-06-09 14:36:00,77.4,66.7,30.03,SW,224,0.0,5.0,70,0.00,,,0.00,meteohub,2013-06-09 18:36:00,
2013-06-09 14:41:00,77.7,68.0,30.02,SW,222,2.0,5.0,72,0.00,,,0.00,meteohub,2013-06-09 18:41:00,
2013-06-09 14:46:00,77.7,67.6,30.02,WNW,291,0.0,6.0,71,0.00,,,0.00,meteohub,2013-06-09 18:46:00,
2013-06-09 14:51:00,77.4,67.6,30.02,NW,316,1.0,6.0,72,0.00,,,0.00,meteohub,2013-06-09 18:51:00,
2013-06-09 14:56:00,76.6,68.2,30.02,SW,216,2.0,8.0,75,0.00,,,0.00,meteohub,2013-06-09 18:56:00,
2013-06-09 15:01:00,75.6,67.5,30.02,SSW,212,5.0,8.0,76,0.00,,,0.00,meteohub,2013-06-09 19:01:00,
2013-06-09 15:06:00,74.7,67.3,30.02,SW,221,4.0,7.0,78,0.00,,,0.00,meteohub,2013-06-09 19:06:00,
2013-06-09 15:12:00,74.8,67.1,30.02,WNW,285,2.0,8.0,77,0.00,,,0.00,meteohub,2013-06-09 19:12:00,
2013-06-09 15:17:00,74.7,66.9,30.01,NW,324,0.0,8.0,77,0.00,,,0.00,meteohub,2013-06-09 19:17:00,
2013-06-09 15:22:00,74.5,67.5,30.02,NW,305,1.0,7.0,79,0.00,,,0.00,meteohub,2013-06-09 19:22:00,
2013-06-09 15:27:00,74.1,67.1,30.02,WNW,284,1.0,7.0,79,0.00,,,0.00,meteohub,2013-06-09 19:27:00,
2013-06-09 15:32:00,73.8,66.9,30.03,South,169,9.0,9.0,79,0.00,,,0.00,meteohub,2013-06-09 19:32:00,
2013-06-09 15:37:00,73.6,67.1,30.02,SW,215,5.0,10.0,80,0.00,,,0.00,meteohub,2013-06-09 19:37:00,
2013-06-09 15:42:00,73.2,67.1,30.01,WNW,297,0.0,10.0,81,0.00,,,0.00,meteohub,2013-06-09 19:42:00,
2013-06-09 15:47:00,72.9,67.1,30.02,SW,232,2.0,10.0,82,0.00,,,0.00,meteohub,2013-06-09 19:47:00,
2013-06-09 15:52:00,72.1,66.4,30.03,WNW,287,2.0,8.0,82,0.00,,,0.00,meteohub,2013-06-09 19:52:00,
2013-06-09 15:57:00,70.7,65.7,30.04,WNW,284,5.0,11.0,84,0.00,,,0.00,meteohub,2013-06-09 19:57:00,
2013-06-09 16:02:00,68.9,65.1,30.04,SSW,210,8.0,11.0,88,0.02,,,0.02,meteohub,2013-06-09 20:02:00,
2013-06-09 16:07:00,67.5,64.4,30.04,WNW,289,1.0,15.0,90,0.04,,,0.04,meteohub,2013-06-09 20:07:00,
2013-06-09 16:12:00,66.7,64.4,30.05,South,191,5.0,15.0,92,0.04,,,0.04,meteohub,2013-06-09 20:12:00,
2013-06-09 16:17:00,66.0,63.9,30.05,NE,54,2.0,15.0,93,0.05,,,0.05,meteohub,2013-06-09 20:17:00,
2013-06-09 16:22:00,65.8,63.7,30.05,West,278,1.0,6.0,93,0.05,,,0.05,meteohub,2013-06-09 20:22:00,
2013-06-09 16:27:00,65.7,63.9,30.06,WNW,297,1.0,7.0,94,0.06,,,0.06,meteohub,2013-06-09 20:27:00,
2013-06-09 16:32:00,65.3,63.5,30.05,WNW,284,2.0,7.0,94,0.06,,,0.06,meteohub,2013-06-09 20:32:00,
2013-06-09 16:37:00,65.1,63.3,30.05,WNW,288,0.0,7.0,94,0.11,,,0.11,meteohub,2013-06-09 20:37:00,
2013-06-09 16:42:00,64.9,63.5,30.05,West,281,0.0,7.0,95,0.21,,,0.21,meteohub,2013-06-09 20:42:00,
2013-06-09 16:47:00,64.9,63.5,30.04,NNE,29,2.0,7.0,95,0.22,,,0.22,meteohub,2013-06-09 20:47:00,
2013-06-09 16:52:00,64.9,63.5,30.04,NE,35,0.0,6.0,95,0.25,,,0.25,meteohub,2013-06-09 20:52:00,
2013-06-09 16:57:00,64.9,63.9,30.04,WSW,257,2.0,5.0,96,0.26,,,0.26,meteohub,2013-06-09 20:57:00,
2013-06-09 17:02:00,64.9,63.9,30.04,SW,235,2.0,9.0,96,0.22,,,0.26,meteohub,2013-06-09 21:02:00,
2013-06-09 17:07:00,64.9,63.9,30.04,West,276,2.0,9.0,96,0.22,,,0.26,meteohub,2013-06-09 21:07:00,
2013-06-09 17:12:00,64.9,63.9,30.04,SW,217,2.0,9.0,96,0.21,,,0.26,meteohub,2013-06-09 21:12:00,
2013-06-09 17:17:00,64.9,63.9,30.03,SSW,211,4.0,9.0,96,0.21,,,0.26,meteohub,2013-06-09 21:17:00,
2013-06-09 17:22:00,65.1,64.0,30.03,WNW,296,1.0,9.0,96,0.21,,,0.26,meteohub,2013-06-09 21:22:00,
2013-06-09 17:27:00,65.1,64.0,30.03,South,169,5.0,9.0,96,0.20,,,0.26,meteohub,2013-06-09 21:27:00,
2013-06-09 17:33:00,65.1,64.0,30.04,SSW,203,4.0,9.0,96,0.19,,,0.26,meteohub,2013-06-09 21:33:00,
2013-06-09 17:38:00,65.3,64.0,30.03,WSW,243,3.0,9.0,96,0.12,,,0.26,meteohub,2013-06-09 21:38:00,
2013-06-09 17:43:00,65.5,64.2,30.03,NNW,340,1.0,9.0,96,0.05,,,0.26,meteohub,2013-06-09 21:43:00,
2013-06-09 17:48:00,65.5,64.0,30.04,SW,232,2.0,7.0,95,0.04,,,0.26,meteohub,2013-06-09 21:48:00,
2013-06-09 17:53:00,65.1,63.7,30.04,West,264,0.0,7.0,95,0.01,,,0.26,meteohub,2013-06-09 21:53:00,
2013-06-09 17:58:00,64.9,63.5,30.04,WSW,246,0.0,5.0,95,0.00,,,0.26,meteohub,2013-06-09 21:58:00,
2013-06-09 18:03:00,64.9,63.5,30.03,West,270,0.0,5.0,95,0.00,,,0.26,meteohub,2013-06-09 22:03:00,
2013-06-09 18:08:00,64.9,63.5,30.03,WNW,298,1.0,5.0,95,0.00,,,0.26,meteohub,2013-06-09 22:08:00,
2013-06-09 18:13:00,65.1,63.7,30.03,WNW,299,0.0,4.0,95,0.00,,,0.26,meteohub,2013-06-09 22:13:00,
2013-06-09 18:18:00,65.1,64.0,30.03,WSW,250,0.0,2.0,96,0.00,,,0.26,meteohub,2013-06-09 22:18:00,
2013-06-09 18:23:00,65.1,63.7,30.03,NW,307,0.0,3.0,95,0.00,,,0.26,meteohub,2013-06-09 22:23:00,
2013-06-09 18:28:00,65.1,63.7,30.03,NW,306,0.0,3.0,95,0.00,,,0.26,meteohub,2013-06-09 22:28:00,
2013-06-09 18:33:00,65.1,63.7,30.04,WSW,250,0.0,3.0,95,0.00,,,0.26,meteohub,2013-06-09 22:33:00,
2013-06-09 18:38:00,65.1,63.7,30.03,NW,310,0.0,3.0,95,0.00,,,0.26,meteohub,2013-06-09 22:38:00,
2013-06-09 18:43:00,65.1,63.7,30.04,WSW,257,0.0,3.0,95,0.00,,,0.26,meteohub,2013-06-09 22:43:00,
2013-06-09 18:48:00,64.9,63.5,30.04,West,270,0.0,3.0,95,0.00,,,0.26,meteohub,2013-06-09 22:48:00,
2013-06-09 18:53:00,64.9,63.5,30.04,SW,235,0.0,1.0,95,0.00,,,0.26,meteohub,2013-06-09 22:53:00,
2013-06-09 18:58:00,64.8,63.3,30.04,SW,229,0.0,1.0,95,0.00,,,0.26,meteohub,2013-06-09 22:58:00,
2013-06-09 19:03:00,64.8,63.7,30.04,NNW,344,1.0,2.0,96,0.00,,,0.26,meteohub,2013-06-09 23:03:00,
2013-06-09 19:08:00,64.8,63.7,30.04,NW,311,0.0,2.0,96,0.00,,,0.26,meteohub,2013-06-09 23:08:00,
2013-06-09 19:13:00,64.8,63.7,30.03,WSW,253,0.0,2.0,96,0.00,,,0.26,meteohub,2013-06-09 23:13:00,
2013-06-09 19:18:00,64.6,63.5,30.03,West,264,0.0,1.0,96,0.00,,,0.26,meteohub,2013-06-09 23:18:00,
2013-06-09 19:23:00,64.6,63.5,30.03,WSW,243,0.0,1.0,96,0.00,,,0.26,meteohub,2013-06-09 23:23:00,
2013-06-09 19:28:00,64.6,63.5,30.03,West,276,0.0,1.0,96,0.00,,,0.26,meteohub,2013-06-09 23:28:00,
2013-06-09 19:33:00,64.6,63.5,30.03,WNW,283,0.0,1.0,96,0.00,,,0.26,meteohub,2013-06-09 23:33:00,
2013-06-09 19:38:00,64.6,63.5,30.03,West,267,0.0,1.0,96,0.01,,,0.27,meteohub,2013-06-09 23:38:00,
2013-06-09 19:43:00,64.4,63.3,30.03,WSW,249,0.0,2.0,96,0.03,,,0.29,meteohub,2013-06-09 23:43:00,
2013-06-09 19:48:00,64.2,63.1,30.03,SW,219,0.0,2.0,96,0.04,,,0.30,meteohub,2013-06-09 23:48:00,
2013-06-09 19:53:00,64.2,63.1,30.03,SW,220,0.0,2.0,96,0.06,,,0.32,meteohub,2013-06-09 23:53:00,
2013-06-09 19:58:00,64.2,63.1,30.02,SW,231,0.0,2.0,96,0.11,,,0.37,meteohub,2013-06-09 23:58:00,
2013-06-09 20:03:00,64.2,63.3,30.02,SW,222,0.0,2.0,97,0.12,,,0.38,meteohub,2013-06-10 00:03:00,
2013-06-09 20:08:00,64.2,63.3,30.03,SSE,149,2.0,2.0,97,0.21,,,0.08,meteohub,2013-06-10 00:08:00,
2013-06-09 20:13:00,64.4,63.5,30.02,WNW,287,0.0,3.0,97,0.28,,,0.15,meteohub,2013-06-10 00:13:00,
2013-06-09 20:18:00,64.6,63.7,30.02,NNW,347,1.0,4.0,97,0.29,,,0.16,meteohub,2013-06-10 00:18:00,
2013-06-09 20:23:00,64.6,63.7,30.02,WNW,291,1.0,4.0,97,0.31,,,0.18,meteohub,2013-06-10 00:23:00,
2013-06-09 20:28:00,64.8,63.9,30.02,WSW,248,4.0,6.0,97,0.34,,,0.21,meteohub,2013-06-10 00:28:00,
2013-06-09 20:33:00,64.8,63.9,30.03,WNW,299,2.0,8.0,97,0.36,,,0.23,meteohub,2013-06-10 00:33:00,
2013-06-09 20:38:00,64.8,63.9,30.03,WNW,297,2.0,8.0,97,0.45,,,0.33,meteohub,2013-06-10 00:38:00,
2013-06-09 20:43:00,64.6,63.7,30.03,WSW,249,0.0,8.0,97,0.55,,,0.45,meteohub,2013-06-10 00:43:00,
2013-06-09 20:48:00,64.8,63.9,30.03,WNW,295,0.0,6.0,97,0.55,,,0.47,meteohub,2013-06-10 00:48:00,
2013-06-09 20:53:00,64.8,63.9,30.03,SW,236,0.0,8.0,97,0.60,,,0.54,meteohub,2013-06-10 00:53:00,
2013-06-09 20:58:00,64.8,63.9,30.04,WSW,238,2.0,11.0,97,0.57,,,0.55,meteohub,2013-06-10 00:58:00,
2013-06-09 21:03:00,64.6,63.7,30.04,WNW,300,0.0,11.0,97,0.55,,,0.55,meteohub,2013-06-10 01:03:00,
2013-06-09 21:08:00,64.6,63.7,30.04,NW,304,0.0,8.0,97,0.46,,,0.55,meteohub,2013-06-10 01:08:00,
2013-06-09 21:13:00,64.6,63.7,30.04,West,267,1.0,8.0,97,0.40,,,0.55,meteohub,2013-06-10 01:13:00,
2013-06-09 21:18:00,64.2,63.3,30.04,West,263,0.0,9.0,97,0.38,,,0.55,meteohub,2013-06-10 01:18:00,
2013-06-09 21:23:00,64.2,63.1,30.04,SE,134,3.0,9.0,96,0.36,,,0.55,meteohub,2013-06-10 01:23:00,
2013-06-09 21:29:00,64.0,63.0,30.03,SW,233,0.0,7.0,96,0.34,,,0.55,meteohub,2013-06-10 01:29:00,
2013-06-09 21:34:00,64.0,63.1,30.03,SE,131,4.0,8.0,97,0.32,,,0.57,meteohub,2013-06-10 01:34:00,
2013-06-09 21:39:00,64.0,63.1,30.03,NW,304,0.0,8.0,97,0.19,,,0.57,meteohub,2013-06-10 01:39:00,
2013-06-09 21:44:00,64.0,63.1,30.03,NW,310,1.0,7.0,97,0.12,,,0.57,meteohub,2013-06-10 01:44:00,
2013-06-09 21:49:00,64.0,63.1,30.03,SW,219,3.0,7.0,97,0.07,,,0.57,meteohub,2013-06-10 01:49:00,
2013-06-09 21:54:00,64.0,63.1,30.03,WNW,299,0.0,8.0,97,0.02,,,0.57,meteohub,2013-06-10 01:54:00,
2013-06-09 21:59:00,64.0,63.1,30.03,SSE,165,0.0,8.0,97,0.02,,,0.57,meteohub,2013-06-10 01:59:00,
2013-06-09 22:04:00,64.2,63.3,30.03,WNW,293,2.0,8.0,97,0.02,,,0.57,meteohub,2013-06-10 02:04:00,
2013-06-09 22:09:00,64.2,63.3,30.02,West,269,1.0,7.0,97,0.02,,,0.57,meteohub,2013-06-10 02:09:00,
2013-06-09 22:14:00,64.2,63.3,30.03,North,356,0.0,11.0,97,0.02,,,0.57,meteohub,2013-06-10 02:14:00,
2013-06-09 22:19:00,64.4,63.5,30.03,West,278,0.0,11.0,97,0.02,,,0.57,meteohub,2013-06-10 02:19:00,
2013-06-09 22:24:00,64.4,63.5,30.03,SSW,208,6.0,11.0,97,0.04,,,0.59,meteohub,2013-06-10 02:24:00,
2013-06-09 22:29:00,64.4,63.5,30.03,SSW,200,9.0,11.0,97,0.05,,,0.61,meteohub,2013-06-10 02:29:00,
2013-06-09 22:34:00,64.2,63.3,30.03,SW,217,3.0,11.0,97,0.06,,,0.63,meteohub,2013-06-10 02:34:00,
2013-06-09 22:39:00,64.2,63.3,30.03,SSW,211,7.0,11.0,97,0.09,,,0.66,meteohub,2013-06-10 02:39:00,
2013-06-09 22:44:00,64.2,63.3,30.03,WNW,284,2.0,11.0,97,0.13,,,0.70,meteohub,2013-06-10 02:44:00,
2013-06-09 22:49:00,64.2,63.3,30.03,WNW,288,2.0,9.0,97,0.17,,,0.74,meteohub,2013-06-10 02:49:00,
2013-06-09 22:54:00,64.2,63.3,30.04,ESE,102,2.0,9.0,97,0.20,,,0.77,meteohub,2013-06-10 02:54:00,
2013-06-09 22:59:00,64.2,63.3,30.04,NNW,330,2.0,9.0,97,0.24,,,0.81,meteohub,2013-06-10 02:59:00,
2013-06-09 23:04:00,64.0,63.1,30.04,SSE,165,5.0,9.0,97,0.27,,,0.84,meteohub,2013-06-10 03:04:00,
2013-06-09 23:09:00,64.0,63.1,30.04,WSW,240,0.0,8.0,97,0.30,,,0.87,meteohub,2013-06-10 03:09:00,
2013-06-09 23:14:00,64.0,63.1,30.04,WNW,294,0.0,8.0,97,0.38,,,0.95,meteohub,2013-06-10 03:14:00,
2013-06-09 23:19:00,64.0,63.1,30.04,WSW,248,0.0,8.0,97,0.43,,,1.00,meteohub,2013-06-10 03:19:00,
2013-06-09 23:24:00,64.0,63.1,30.03,NNW,338,0.0,10.0,97,0.41,,,1.01,meteohub,2013-06-10 03:24:00,
2013-06-09 23:29:00,64.0,63.1,30.03,WNW,291,2.0,10.0,97,0.42,,,1.03,meteohub,2013-06-10 03:29:00,
2013-06-09 23:34:00,64.2,63.7,30.03,SSW,194,2.0,10.0,98,0.39,,,1.03,meteohub,2013-06-10 03:34:00,
2013-06-09 23:39:00,64.2,63.3,30.03,SSW,212,4.0,7.0,97,0.35,,,1.03,meteohub,2013-06-10 03:39:00,
2013-06-09 23:44:00,64.2,63.3,30.02,WNW,293,0.0,11.0,97,0.32,,,1.03,meteohub,2013-06-10 03:44:00,
2013-06-09 23:49:00,64.4,63.9,30.02,NNW,335,4.0,11.0,98,0.28,,,1.03,meteohub,2013-06-10 03:49:00,
2013-06-09 23:54:00,64.6,64.0,30.02,SW,235,5.0,7.0,98,0.25,,,1.03,meteohub,2013-06-10 03:54:00,
2013-06-09 23:59:00,64.6,64.0,30.03,East,96,1.0,10.0,98,0.23,,,1.04,meteohub,2013-06-10 03:59:00,